GAOFEN 7

导读

高分七号卫星(GAOFEN 7)是中国自主研制的高分辨率光学遥感卫星,于2019年11月3日在太原卫星发射中心成功发射。作为我国高分专项工程的重要组成部分,它搭载了激光测高仪与双线阵相机,可获取亚米级高分辨率立体影像,在全球地理信息测绘、国土资源调查、智慧城市建设、防灾减灾等领域发挥关键作用,标志着我国民用遥感卫星迈入高分立体测绘新时代。

Basic Information
目录编号:
44703
目录名称:
GAOFEN 7
国际标识:
2019-072A
轨道中心:
EARTH
卫星名称:
GAOFEN 7
卫星全名:
--
卫星状态:
在轨 (已飞行2414 天)
发射日期:
2019-11-03 UTC
国别 :
中国 (CN)
星等 :
--
Orbit Information
数据来源 国际轨道数据 AOE轨道数据
星历时间 2026-06-13T04:36:03+0800
6小时前
查看轨道信息
2026-06-09T00:00:00+0800
4天前
查看轨道信息
半长轴 6879.242km 6879.333km
偏心率 0.0017746 0.0017946
轨道倾角 97.244° 97.244°
近地点辐角 55.080° 68.695°
升交点赤经 225.488° 221.452°
平近点角 305.211° 25.942°
近地点 488.897km 488.85km
远地点 513.313km 513.542km
周期 94.639分钟 94.641分钟
每日圈数 15.2157 15.215399
Detailed Information
使用方式:
暂无
2D Orbit Map
3D Orbit Map
Orbit Altitude Analysis Chart
Orbit Inclination Analysis Chart
Orbit Comprehensive Analysis Chart
View Comprehensive Chart